METEOR 2-17 DEB, 35370

Orbit data source: Space-Track

METEOR 2-17 DEB, 35370 is space debris in LEO originally from a launch on Sat, 30 Jan 1988 UTC launched from the Plesetsk Missile And Space Complex (PKMTR). Debris objects in space refer to the collection of defunct objects orbiting the Earth. Examples of debris include non-operational satellites, rocket bodies, and fragments generated from explosions, collisions, or faulty payload assembly.

Loading next visibility...
Identifier
35370, 1988-005AE
Orbit
LEO
Last TLE update
20 hours ago
Origin
Manufacturer
Unknown
Mission
Spacecraft
Bus & Motor
Unknown
Mass
Unknown
Launch date (UTC)
1988-01-30 (37 years ago)
Launch vehicle
Unknown
Launch site
Plesetsk Missile And Space Complex (PKMTR)
Object type
Payload
Rocket body
Debris
Shape & HBR
Unknown
Radar Cross Section
Small (<0.1 m²)

Expand to show TLE details & history

TLE from 20 hours ago
0 METEOR 2-17 DEB
1 35370U 88005AE  25128.56648355  .00003007  00000-0  20407-2 0  9994
2 35370  82.5243 228.6698 0019928  24.8517  34.3898 13.99758729908430
Epoch: 2025-05-08T13:35Z
Definitive object data (Epoch: 2025-05-08T13:35:44.178Z)
Latitude
58.6543°
Longitude
170.47515°
Altitude
892.59 km
Speed
7.417 km/s
True Right ascension
16h 04m 10s
True Declination
58° 30' 15"
Sunlit
Object was in daylight at TLE epoch
Visualization TLE readout
Latitude
-54.84673°
Longitude
-11.88841°
Altitude
928.063 km
Speed
7.381 km/s
Apparent Right ascension
04h 44m 44s
Apparent Declination
-48° 18' 08"
Sunlit
Object is in daylight
Visualization observer readout
Local Sidereal Time
17:27:41
Azimuth
141.051° SSE
Elevation
-78.63°
Doppler factor
1
Orbital elements
Apogee altitude
906.249 km
Perigee altitude
877.275 km
Semi-major axis
7,269.899 km
Eccentricity
0.0019928
Inclination
82.5243°
RAAN
228.6698°
Arg. of periapsis
24.8517°
True anomaly
34.51905°
Mean anomaly
34.3898°
Eccentric anomaly
34.4544°
Mean motion
3.50147 °/min
BSTAR
0.0020407
Orbital period
102.81 mins
Loading maneuver chart data...
Loading SW <> Apogee altitude chart data...
Loading historical data...
Loading historical data...
Loading historical data...
Loading historical data...
Loading historical data...
Loading historical data...
Loading historical data...

METEOR 2-17 DEB Visibility forecast

Observer location: undefined°, undefined°

Span
Click to sort rows by Start time (UTC) header in descending order
Start Az.
Max El. time (UTC)
Max El. Az.
Max El.
End time (UTC)
End Az.
8 mins2025-05-09 17:20:23.102Z20.743° NNE2025-05-09 17:24:23.102Z65.727° ENE21.701°2025-05-09 17:28:23.102Z116.541° SE
9 mins2025-05-09 19:04:23.102Z335.107° NNW2025-05-09 19:08:23.102Z277.54° WNW35.599°2025-05-09 19:13:23.102Z200.544° SSW
9 mins2025-05-10 06:36:23.102Z152.134° SSE2025-05-10 06:40:23.102Z94.948° ESE32.463°2025-05-10 06:45:23.102Z25.036° NE
7 mins2025-05-10 08:21:23.102Z245.106° WSW2025-05-10 08:24:23.102Z287.647° WNW23.864°2025-05-10 08:28:23.102Z338.43° N
|